This is the latest recevied weather packets stored in our database for station/object DL4ABR-6. If no packets are shown the sender has not sent any weather packets the latest 10 day(s).
| Time | Temp. | Humidity | Pressure | Rain* | Wind** | Luminosity | Snow |
|---|---|---|---|---|---|---|---|
| 1778221340 | 6.11° C | 99% | 1015.6 hPa | 0 mm | - | - | - |
| 1778220530 | 5.56° C | 99% | 1015.4 hPa | 0 mm | - | - | - |
| 1778219700 | 5° C | 99% | 1015.6 hPa | 0 mm | - | - | - |
| 1778218885 | 5° C | 99% | 1015.4 hPa | 0 mm | - | - | - |
| 1778218060 | 3.33° C | 99% | 1015.5 hPa | 0 mm | - | - | - |
| 1778217260 | 2.78° C | 99% | 1015.7 hPa | 0 mm | - | - | - |
| 1778216425 | 2.22° C | 99% | 1015.4 hPa | 0 mm | - | - | - |
| 1778215670 | 1.67° C | 99% | 1015.4 hPa | 0 mm | - | - | - |
| 1778214835 | 1.11° C | 99% | 1015.4 hPa | 0 mm | - | - | - |
| 1778214040 | 1.11° C | 99% | 1015.2 hPa | 0 mm | - | - | - |
| 1778213170 | 1.11° C | 99% | 1015.3 hPa | 0 mm | - | - | - |
| 1778212295 | 1.11° C | 99% | 1015 hPa | 0 mm | - | - | - |
| 1778211545 | 1.11° C | 99% | 1015 hPa | 0 mm | - | - | - |
| 1778210815 | 1.67° C | 99% | 1015.1 hPa | 0 mm | - | - | - |
| 1778210005 | 1.67° C | 99% | 1014.9 hPa | 0 mm | - | - | - |
| 1778209280 | 1.67° C | 99% | 1014.8 hPa | 0 mm | - | - | - |
| 1778208465 | 1.67° C | 99% | 1015.2 hPa | 0 mm | - | - | - |
| 1778207640 | 1.67° C | 99% | 1015 hPa | 0 mm | - | - | - |
| 1778206850 | 2.22° C | 99% | 1015.2 hPa | 0 mm | - | - | - |
| 1778205980 | 2.22° C | 99% | 1015 hPa | 0 mm | - | - | - |
| 1778205115 | 2.22° C | 99% | 1014.9 hPa | 0 mm | - | - | - |
| 1778204255 | 2.22° C | 99% | 1014.9 hPa | 0 mm | - | - | - |
| 1778203360 | 2.22° C | 99% | 1014.9 hPa | 0 mm | - | - | - |
| 1778202590 | 2.22° C | 99% | 1014.8 hPa | 0 mm | - | - | - |
| 1778201805 | 2.22° C | 99% | 1014.8 hPa | 0 mm | - | - | - |
* Rain since midnight (hover to see other rain measurements)
** Current wind speed in m/s (hover to see current wind gust speed)